Southern Illinois Airport
KMDH : now visible

Airfield :











YOU CAN JOIN US ON...

 
LOGIN :

Register | Disclaimer

   EN    FR    IT 

 









Legend :    VFR   Marginal VFR   IFR   Intensive IFR   Very Intensive IFR
Visi :
Ceiling :
>= 8 km
>= 3000ft
5 to 8 km
1000 to 3000 ft
1500m to 5 km
500 to 1000 ft
800 to 1500m
200 to 500 ft
< 800m
< 200 ft
Symbols :   Thunderstorms  Fog  Heavy snow  Heavy precipitations  Wind > 20 kt






- Airport Elevation : 411 ft
- IATA code : MDH


KMDH - Southern Illinois

CURRENT METAR :
  • 231352Z 20008KT 10SM OVC060 06/M01 A3014 RMK AO2 SLP209 T00611006

EXPIRED METARs :
  • 231252Z 20009KT 10SM OVC065 06/M01 A3014 RMK AO2 SLP208 T00561011
  • 231152Z AUTO 19006KT 10SM OVC065 06/M01 A3014 RMK AO2 SLP208 T00561011 10067 20044 56005

TAF N/A



MET'MAP, your aeronautical weather chart ! - Copyright ORBIFLY December 2007 - Disclaimer

ORBIFLY MET'MAP TEAM :

Programming & Development : Alexandra Zaïnal
Concept & original design : Baudouin d'Aumeries
Assistance for programming : Marc-Olivier Méhu
Technical & hardware support : Manuel Goepfert

Contact : metmap@orbifly.com




SOURCES & CREDITS :

   NOAA       Earth
Advisory